| time (UTC) | temp F | wind direction | speed MPH | gust MPH | rain 1hr in | rain 24hr in | rain mn in | humidity % | barometer mb |
| 20260507172048 | 64 | 37 | 0.0 | 0.0 | 0.00 | 0.17 | 0.10 | 38 | 1004.6 |
| 20260507171547 | 64 | 344 | 0.0 | 0.0 | 0.00 | 0.17 | 0.10 | 40 | 1004.7 |
| 20260507171047 | 64 | 51 | 0.0 | 0.0 | 0.00 | 0.17 | 0.10 | 42 | 1004.7 |
| 20260507170547 | 64 | 351 | 0.0 | 0.0 | 0.00 | 0.17 | 0.10 | 38 | 1004.8 |
| 20260507170051 | 64 | 247 | 0.0 | 1.0 | 0.00 | 0.17 | 0.10 | 43 | 1004.8 |
| 20260507165545 | 64 | 360 | 0.0 | 1.0 | 0.00 | 0.17 | 0.10 | 43 | 1004.8 |
| 20260507165045 | 63 | 312 | 0.0 | 1.0 | 0.00 | 0.17 | 0.10 | 46 | 1005.0 |
| 20260507164557 | 64 | 324 | 0.0 | 0.0 | 0.00 | 0.17 | 0.10 | 43 | 1005.0 |
| 20260507164144 | 64 | 5 | 0.0 | 1.0 | 0.00 | 0.17 | 0.10 | 48 | 1005.0 |
| 20260507163544 | 63 | 315 | 0.0 | 0.0 | 0.00 | 0.17 | 0.10 | 42 | 1005.0 |
| 20260507163043 | 63 | 341 | 0.0 | 0.0 | 0.00 | 0.17 | 0.10 | 44 | 1005.1 |
| 20260507162543 | 63 | 112 | 0.0 | 0.0 | 0.00 | 0.17 | 0.10 | 45 | 1005.1 |
| 20260507162042 | 63 | 51 | 0.0 | 0.0 | 0.00 | 0.17 | 0.10 | 44 | 1005.1 |
| 20260507161542 | 63 | 311 | 0.0 | 0.0 | 0.00 | 0.17 | 0.10 | 42 | 1005.2 |
| 20260507161043 | 63 | 360 | 0.0 | 0.0 | 0.00 | 0.17 | 0.10 | 45 | 1005.3 |
| 20260507160541 | 63 | 113 | 0.0 | 0.0 | 0.01 | 0.17 | 0.10 | 46 | 1005.2 |
| 20260507160041 | 63 | 5 | 0.0 | 7.0 | 0.01 | 0.17 | 0.10 | 48 | 1005.4 |
| 20260507155539 | 62 | 92 | 0.0 | 7.0 | 0.01 | 0.17 | 0.10 | 47 | 1005.4 |
| 20260507155039 | 62 | 165 | 0.0 | 0.0 | 0.01 | 0.17 | 0.10 | 48 | 1005.5 |
| 20260507154545 | 62 | 360 | 0.0 | 0.0 | 0.01 | 0.17 | 0.10 | 52 | 1005.5 |
| 20260507154038 | 62 | 298 | 0.0 | 0.0 | 0.01 | 0.17 | 0.10 | 49 | 1005.5 |
| 20260507153536 | 62 | 302 | 0.0 | 0.0 | 0.01 | 0.17 | 0.10 | 51 | 1005.5 |
| 20260507153035 | 61 | 26 | 0.0 | 0.0 | 0.01 | 0.17 | 0.10 | 55 | 1005.4 |
| 20260507152534 | 61 | 300 | 0.0 | 0.0 | 0.01 | 0.17 | 0.10 | 53 | 1005.6 |
| 20260507152033 | 61 | 109 | 0.0 | 0.0 | 0.01 | 0.17 | 0.10 | 56 | 1005.6 |
| 20260507151533 | 61 | 144 | 0.0 | 0.0 | 0.01 | 0.17 | 0.10 | 57 | 1005.7 |
| 20260507151031 | 61 | 268 | 0.0 | 0.0 | 0.01 | 0.17 | 0.10 | 59 | 1005.7 |
| 20260507150531 | 61 | 175 | 0.0 | 0.0 | 0.00 | 0.16 | 0.09 | 60 | 1005.6 |
| 20260507150030 | 61 | 269 | 0.0 | 0.0 | 0.00 | 0.16 | 0.09 | 58 | 1005.7 |
| 20260507145529 | 60 | 325 | 0.0 | 0.0 | 0.00 | 0.16 | 0.09 | 63 | 1005.8 |
| 20260507145028 | 60 | 306 | 0.0 | 0.0 | 0.00 | 0.16 | 0.09 | 61 | 1005.8 |
| 20260507144532 | 60 | 315 | 0.0 | 0.0 | 0.00 | 0.16 | 0.09 | 65 | 1005.8 |
| 20260507144027 | 59 | 76 | 0.0 | 0.0 | 0.00 | 0.16 | 0.09 | 63 | 1005.9 |
| 20260507143526 | 59 | 5 | 0.0 | 2.0 | 0.00 | 0.16 | 0.09 | 66 | 1005.9 |
| 20260507143031 | 59 | 260 | 0.0 | 2.0 | 0.01 | 0.16 | 0.09 | 64 | 1006.0 |
| 20260507142526 | 58 | 101 | 0.0 | 0.0 | 0.01 | 0.16 | 0.09 | 64 | 1006.2 |
| 20260507142025 | 58 | 22 | 0.0 | 0.0 | 0.01 | 0.16 | 0.09 | 64 | 1006.0 |
| 20260507141525 | 58 | 340 | 0.0 | 0.0 | 0.01 | 0.16 | 0.09 | 64 | 1006.0 |
| 20260507141024 | 58 | 15 | 0.0 | 0.0 | 0.01 | 0.16 | 0.09 | 63 | 1006.1 |
| 20260507140524 | 58 | 16 | 0.0 | 0.0 | 0.01 | 0.16 | 0.09 | 65 | 1006.0 |
| 20260507140027 | 58 | 59 | 0.0 | 0.0 | 0.01 | 0.16 | 0.09 | 67 | 1006.0 |
| 20260507135523 | 57 | 139 | 0.0 | 0.0 | 0.01 | 0.16 | 0.09 | 71 | 1006.1 |
| 20260507135022 | 57 | 223 | 0.0 | 0.0 | 0.02 | 0.16 | 0.09 | 68 | 1006.0 |
| 20260507134527 | 56 | 125 | 0.0 | 0.0 | 0.02 | 0.16 | 0.09 | 72 | 1006.1 |
| 20260507134022 | 56 | 123 | 0.0 | 0.0 | 0.02 | 0.16 | 0.09 | 71 | 1006.0 |
| 20260507133522 | 56 | 55 | 0.0 | 0.0 | 0.02 | 0.16 | 0.09 | 73 | 1006.1 |
| 20260507133024 | 56 | 5 | 0.0 | 0.0 | 0.01 | 0.15 | 0.08 | 73 | 1006.1 |
| 20260507132521 | 56 | 288 | 0.0 | 0.0 | 0.01 | 0.15 | 0.08 | 76 | 1006.2 |
| 20260507132019 | 55 | 74 | 0.0 | 0.0 | 0.01 | 0.15 | 0.08 | 80 | 1006.2 |
| 20260507131521 | 55 | 100 | 0.0 | 0.0 | 0.01 | 0.15 | 0.08 | 81 | 1006.2 |
| 20260507131018 | 54 | 109 | 0.0 | 0.0 | 0.01 | 0.15 | 0.08 | 82 | 1006.3 |
| 20260507130517 | 54 | 110 | 0.0 | 0.0 | 0.01 | 0.15 | 0.08 | 82 | 1006.3 |
| 20260507130017 | 54 | 104 | 0.0 | 0.0 | 0.01 | 0.15 | 0.08 | 83 | 1006.3 |
| 20260507125517 | 53 | 107 | 0.0 | 0.0 | 0.01 | 0.15 | 0.08 | 85 | 1006.3 |
| 20260507125016 | 53 | 309 | 0.0 | 0.0 | 0.00 | 0.14 | 0.07 | 88 | 1006.2 |
| 20260507124524 | 53 | 300 | 0.0 | 0.0 | 0.00 | 0.14 | 0.07 | 87 | 1006.4 |
| 20260507124016 | 52 | 271 | 0.0 | 0.0 | 0.00 | 0.14 | 0.07 | 89 | 1006.4 |
| 20260507123518 | 52 | 173 | 0.0 | 0.0 | 0.00 | 0.14 | 0.07 | 89 | 1006.5 |
| 20260507123016 | 51 | 180 | 0.0 | 0.0 | 0.00 | 0.14 | 0.07 | 90 | 1006.5 |
| 20260507122519 | 51 | 177 | 0.0 | 0.0 | 0.00 | 0.14 | 0.07 | 90 | 1006.6 |
| 20260507122017 | 50 | 173 | 0.0 | 0.0 | 0.01 | 0.14 | 0.07 | 90 | 1006.6 |
| 20260507121514 | 50 | 173 | 0.0 | 0.0 | 0.01 | 0.14 | 0.07 | 90 | 1006.6 |
| 20260507121014 | 50 | 275 | 0.0 | 0.0 | 0.01 | 0.14 | 0.07 | 90 | 1006.4 |
| 20260507120513 | 50 | 173 | 0.0 | 0.0 | 0.01 | 0.14 | 0.07 | 90 | 1006.4 |
| 20260507120017 | 50 | 173 | 0.0 | 0.0 | 0.01 | 0.14 | 0.07 | 90 | 1006.4 |
| 20260507115513 | 50 | 187 | 0.0 | 0.0 | 0.01 | 0.14 | 0.07 | 90 | 1006.3 |
| 20260507115011 | 49 | 192 | 0.0 | 0.0 | 0.01 | 0.14 | 0.07 | 90 | 1006.3 |
| 20260507114512 | 49 | 204 | 0.0 | 0.0 | 0.01 | 0.14 | 0.07 | 90 | 1006.3 |
| 20260507114011 | 49 | 204 | 0.0 | 0.0 | 0.02 | 0.14 | 0.07 | 90 | 1006.4 |
| 20260507113513 | 49 | 204 | 0.0 | 0.0 | 0.02 | 0.14 | 0.07 | 90 | 1006.3 |
| 20260507113014 | 49 | 204 | 0.0 | 0.0 | 0.02 | 0.14 | 0.07 | 90 | 1006.3 |
| 20260507112514 | 49 | 204 | 0.0 | 0.0 | 0.02 | 0.14 | 0.07 | 90 | 1006.3 |
| 20260507112010 | 49 | 204 | 0.0 | 0.0 | 0.01 | 0.13 | 0.06 | 89 | 1006.2 |
| 20260507111509 | 49 | 204 | 0.0 | 0.0 | 0.01 | 0.13 | 0.06 | 90 | 1006.1 |
| 20260507111008 | 49 | 128 | 0.0 | 0.0 | 0.01 | 0.13 | 0.06 | 90 | 1006.2 |
| 20260507110508 | 49 | 128 | 0.0 | 0.0 | 0.01 | 0.13 | 0.06 | 90 | 1006.1 |
| 20260507110008 | 49 | 128 | 0.0 | 0.0 | 0.01 | 0.13 | 0.06 | 90 | 1006.1 |
| 20260507105507 | 49 | 57 | 0.0 | 0.0 | 0.01 | 0.13 | 0.06 | 90 | 1005.9 |
| 20260507105010 | 49 | 57 | 0.0 | 0.0 | 0.02 | 0.13 | 0.06 | 90 | 1005.8 |
| 20260507104507 | 48 | 57 | 0.0 | 0.0 | 0.01 | 0.12 | 0.05 | 90 | 1005.8 |
| 20260507104007 | 48 | 56 | 0.0 | 0.0 | 0.01 | 0.12 | 0.05 | 90 | 1006.0 |
| 20260507103507 | 48 | 57 | 0.0 | 0.0 | 0.01 | 0.12 | 0.05 | 90 | 1006.2 |
| 20260507103009 | 48 | 57 | 0.0 | 0.0 | 0.01 | 0.12 | 0.05 | 90 | 1006.3 |
| 20260507102506 | 48 | 57 | 0.0 | 0.0 | 0.02 | 0.12 | 0.05 | 90 | 1006.2 |
| 20260507102007 | 48 | 57 | 0.0 | 0.0 | 0.02 | 0.12 | 0.05 | 90 | 1006.3 |
| 20260507101512 | 48 | 57 | 0.0 | 0.0 | 0.02 | 0.12 | 0.05 | 90 | 1006.0 |
| 20260507101006 | 48 | 57 | 0.0 | 0.0 | 0.02 | 0.12 | 0.05 | 90 | 1005.7 |
| 20260507100503 | 48 | 57 | 0.0 | 0.0 | 0.02 | 0.12 | 0.05 | 90 | 1005.8 |
| 20260507100006 | 48 | 57 | 0.0 | 0.0 | 0.02 | 0.12 | 0.05 | 90 | 1005.8 |
| 20260507095503 | 48 | 57 | 0.0 | 0.0 | 0.03 | 0.12 | 0.05 | 90 | 1005.9 |
| 20260507095003 | 48 | 57 | 0.0 | 0.0 | 0.02 | 0.11 | 0.04 | 90 | 1005.6 |
| 20260507094502 | 49 | 26 | 0.0 | 0.0 | 0.02 | 0.11 | 0.04 | 90 | 1005.6 |
| 20260507094001 | 49 | 26 | 0.0 | 0.0 | 0.02 | 0.11 | 0.04 | 90 | 1005.5 |
| 20260507093503 | 49 | 26 | 0.0 | 0.0 | 0.03 | 0.11 | 0.04 | 90 | 1005.5 |
| 20260507093002 | 49 | 26 | 0.0 | 0.0 | 0.02 | 0.10 | 0.03 | 90 | 1005.5 |
| 20260507092601 | 49 | 26 | 0.0 | 0.0 | 0.02 | 0.10 | 0.03 | 90 | 1005.6 |
| 20260507092102 | 49 | 50 | 0.0 | 0.0 | 0.02 | 0.10 | 0.03 | 90 | 1005.5 |
| 20260507091559 | 49 | 34 | 0.0 | 0.0 | 0.02 | 0.10 | 0.03 | 90 | 1005.5 |
| 20260507091059 | 49 | 355 | 0.0 | 0.0 | 0.02 | 0.10 | 0.03 | 90 | 1005.4 |
| 20260507090558 | 49 | 340 | 0.0 | 1.0 | 0.03 | 0.10 | 0.03 | 89 | 1005.5 |
| 20260507090101 | 49 | 340 | 0.0 | 1.0 | 0.03 | 0.10 | 0.03 | 89 | 1005.7 |
| 20260507085556 | 49 | 340 | 0.0 | 0.0 | 0.02 | 0.09 | 0.02 | 89 | 1005.8 |
| 20260507085059 | 50 | 340 | 0.0 | 0.0 | 0.02 | 0.09 | 0.02 | 89 | 1005.8 |
| 20260507084601 | 50 | 340 | 0.0 | 0.0 | 0.02 | 0.09 | 0.02 | 88 | 1005.8 |
| 20260507084059 | 50 | 340 | 0.0 | 0.0 | 0.02 | 0.09 | 0.02 | 88 | 1005.8 |
| 20260507083554 | 50 | 340 | 0.0 | 0.0 | 0.01 | 0.08 | 0.01 | 88 | 1005.9 |
| 20260507083053 | 50 | 340 | 0.0 | 0.0 | 0.01 | 0.08 | 0.01 | 87 | 1005.7 |
| 20260507082552 | 50 | 340 | 0.0 | 0.0 | 0.01 | 0.08 | 0.01 | 87 | 1005.6 |
| 20260507082052 | 50 | 340 | 0.0 | 0.0 | 0.01 | 0.08 | 0.01 | 86 | 1005.4 |
| 20260507081552 | 51 | 28 | 0.0 | 0.0 | 0.01 | 0.08 | 0.01 | 85 | 1005.6 |
| 20260507081049 | 51 | 28 | 0.0 | 0.0 | 0.01 | 0.08 | 0.01 | 85 | 1005.4 |
| 20260507080548 | 51 | 82 | 0.0 | 0.0 | 0.00 | 0.07 | 0.00 | 84 | 1005.5 |
| 20260507080104 | 52 | 82 | 0.0 | 0.0 | 0.00 | 0.07 | 0.00 | 84 | 1005.7 |
| 20260507075546 | 52 | 71 | 0.0 | 0.0 | 0.00 | 0.07 | 0.00 | 83 | 1005.6 |
| 20260507075045 | 52 | 32 | 0.0 | 0.0 | 0.00 | 0.07 | 0.00 | 83 | 1005.7 |
| 20260507074544 | 53 | 147 | 0.0 | 0.0 | 0.00 | 0.07 | 0.00 | 84 | 1005.4 |
| 20260507074044 | 53 | 229 | 0.0 | 0.0 | 0.00 | 0.07 | 0.00 | 83 | 1005.3 |
| 20260507073542 | 53 | 190 | 0.0 | 0.0 | 0.00 | 0.07 | 0.00 | 82 | 1005.3 |
| 20260507073041 | 54 | 5 | 0.0 | 0.0 | 0.00 | 0.07 | 0.00 | 82 | 1005.3 |
| 20260507072540 | 54 | 355 | 0.0 | 0.0 | 0.00 | 0.07 | 0.00 | 82 | 1005.2 |
| 20260507072038 | 54 | 32 | 0.0 | 0.0 | 0.00 | 0.07 | 0.00 | 82 | 1004.9 |
| 20260507071538 | 54 | 286 | 0.0 | 0.0 | 0.00 | 0.07 | 0.00 | 83 | 1004.6 |
| 20260507071043 | 54 | 338 | 0.0 | 0.0 | 0.00 | 0.07 | 0.00 | 84 | 1004.5 |
| 20260507070536 | 55 | 338 | 0.0 | 0.0 | 0.00 | 0.07 | 0.00 | 85 | 1004.5 |
| 20260507070036 | 55 | 9 | 0.0 | 0.0 | 0.00 | 0.07 | 0.00 | 85 | 1004.4 |
| 20260507065538 | 55 | 15 | 0.0 | 0.0 | 0.00 | 0.07 | 0.00 | 86 | 1004.4 |
| 20260507065034 | 55 | 5 | 0.0 | 0.0 | 0.00 | 0.07 | 0.00 | 86 | 1004.4 |
| 20260507064534 | 55 | 5 | 0.0 | 0.0 | 0.00 | 0.07 | 0.00 | 85 | 1004.4 |
| 20260507064034 | 55 | 5 | 0.0 | 0.0 | 0.00 | 0.07 | 0.00 | 85 | 1004.5 |
| 20260507063533 | 55 | 5 | 0.0 | 0.0 | 0.00 | 0.07 | 0.00 | 85 | 1004.6 |
| 20260507063034 | 55 | 82 | 0.0 | 0.0 | 0.00 | 0.07 | 0.00 | 85 | 1004.8 |
| 20260507062534 | 55 | 355 | 0.0 | 0.0 | 0.00 | 0.07 | 0.00 | 84 | 1004.8 |
| 20260507062033 | 55 | 355 | 0.0 | 0.0 | 0.00 | 0.07 | 0.00 | 85 | 1004.7 |
| 20260507061533 | 55 | 355 | 0.0 | 0.0 | 0.00 | 0.07 | 0.00 | 85 | 1004.6 |
| 20260507061031 | 55 | 346 | 0.0 | 0.0 | 0.00 | 0.07 | 0.00 | 85 | 1004.4 |
| 20260507060531 | 55 | 347 | 0.0 | 0.0 | 0.00 | 0.07 | 0.00 | 85 | 1004.4 |
| 20260507060031 | 55 | 347 | 0.0 | 1.0 | 0.00 | 0.07 | 0.00 | 85 | 1004.5 |
| 20260507055531 | 56 | 341 | 0.0 | 0.0 | 0.00 | 0.07 | 0.00 | 84 | 1004.6 |
| 20260507055033 | 56 | 17 | 0.0 | 0.0 | 0.00 | 0.07 | 0.00 | 84 | 1004.6 |
| 20260507054536 | 56 | 32 | 0.0 | 0.0 | 0.00 | 0.07 | 0.00 | 85 | 1004.7 |
| 20260507054029 | 56 | 350 | 0.0 | 0.0 | 0.00 | 0.07 | 0.00 | 84 | 1004.7 |
| 20260507053529 | 56 | 88 | 0.0 | 0.0 | 0.00 | 0.07 | 0.00 | 85 | 1004.8 |
| 20260507053028 | 56 | 111 | 0.0 | 0.0 | 0.00 | 0.07 | 0.00 | 86 | 1005.0 |
| 20260507052527 | 57 | 18 | 0.0 | 0.0 | 0.00 | 0.07 | 0.00 | 86 | 1005.0 |
| 20260507052026 | 57 | 80 | 0.0 | 0.0 | 0.00 | 0.07 | 0.00 | 86 | 1004.8 |
| 20260507051525 | 57 | 111 | 0.0 | 0.0 | 0.00 | 0.07 | 0.00 | 88 | 1004.9 |
| 20260507051024 | 58 | 101 | 0.0 | 0.0 | 0.00 | 0.07 | 0.00 | 89 | 1004.8 |
| 20260507050522 | 58 | 19 | 0.0 | 0.0 | 0.00 | 0.07 | 0.00 | 89 | 1004.6 |
| 20260507050027 | 58 | 30 | 0.0 | 0.0 | 0.00 | 0.07 | 0.00 | 89 | 1004.6 |
| 20260507045522 | 58 | 360 | 0.0 | 0.0 | 0.00 | 0.07 | 0.00 | 89 | 1004.6 |
| 20260507045022 | 58 | 298 | 0.0 | 0.0 | 0.00 | 0.07 | 0.00 | 89 | 1004.7 |
| 20260507044521 | 58 | 355 | 0.0 | 0.0 | 0.00 | 0.07 | 0.00 | 89 | 1004.7 |
| 20260507044020 | 58 | 26 | 0.0 | 0.0 | 0.00 | 0.07 | 0.00 | 89 | 1004.7 |
| 20260507043519 | 58 | 32 | 0.0 | 0.0 | 0.00 | 0.07 | 0.00 | 90 | 1004.7 |
| 20260507043023 | 59 | 28 | 0.0 | 0.0 | 0.00 | 0.07 | 0.00 | 90 | 1004.6 |
| 20260507042517 | 59 | 47 | 0.0 | 0.0 | 0.00 | 0.07 | 0.00 | 90 | 1004.4 |
| 20260507042016 | 59 | 292 | 0.0 | 0.0 | 0.00 | 0.07 | 0.00 | 89 | 1004.3 |
| 20260507041517 | 59 | 279 | 0.0 | 0.0 | 0.00 | 0.07 | 0.00 | 89 | 1004.6 |
| 20260507041015 | 59 | 268 | 0.0 | 0.0 | 0.00 | 0.07 | 0.00 | 89 | 1004.6 |
| 20260507040517 | 59 | 9 | 0.0 | 0.0 | 0.00 | 0.07 | 0.00 | 89 | 1004.5 |
| 20260507040014 | 59 | 230 | 0.0 | 0.0 | 0.00 | 0.07 | 0.00 | 88 | 1004.5 |
| 20260507035513 | 59 | 335 | 0.0 | 0.0 | 0.01 | 0.07 | 0.07 | 88 | 1004.8 |
| 20260507035013 | 59 | 243 | 0.0 | 0.0 | 0.01 | 0.07 | 0.07 | 88 | 1004.8 |
| 20260507034512 | 59 | 344 | 0.0 | 0.0 | 0.01 | 0.07 | 0.07 | 87 | 1004.7 |
| 20260507034013 | 59 | 248 | 0.0 | 0.0 | 0.01 | 0.07 | 0.07 | 87 | 1004.8 |
| 20260507033514 | 59 | 326 | 0.0 | 0.0 | 0.01 | 0.07 | 0.07 | 88 | 1004.6 |
| 20260507033012 | 59 | 355 | 0.0 | 0.0 | 0.01 | 0.07 | 0.07 | 88 | 1004.5 |
| 20260507032511 | 59 | 242 | 0.0 | 0.0 | 0.01 | 0.07 | 0.07 | 88 | 1004.5 |
| 20260507032011 | 59 | 286 | 0.0 | 0.0 | 0.01 | 0.07 | 0.07 | 88 | 1004.5 |
| 20260507031512 | 59 | 286 | 0.0 | 0.0 | 0.01 | 0.07 | 0.07 | 88 | 1004.4 |
| 20260507031011 | 59 | 290 | 0.0 | 0.0 | 0.01 | 0.07 | 0.07 | 88 | 1004.3 |
| 20260507030511 | 59 | 271 | 0.0 | 0.0 | 0.01 | 0.07 | 0.07 | 88 | 1004.2 |
| 20260507030013 | 59 | 302 | 0.0 | 0.0 | 0.01 | 0.07 | 0.07 | 88 | 1004.2 |
| 20260507025512 | 59 | 221 | 0.0 | 0.0 | 0.00 | 0.06 | 0.06 | 88 | 1004.2 |
| 20260507025011 | 59 | 254 | 0.0 | 0.0 | 0.00 | 0.06 | 0.06 | 88 | 1004.3 |
| 20260507024512 | 59 | 255 | 0.0 | 0.0 | 0.00 | 0.06 | 0.06 | 87 | 1004.1 |
| 20260507024013 | 59 | 241 | 0.0 | 0.0 | 0.00 | 0.06 | 0.06 | 87 | 1004.0 |
| 20260507023510 | 59 | 303 | 0.0 | 0.0 | 0.00 | 0.06 | 0.06 | 87 | 1004.2 |
| 20260507023010 | 59 | 269 | 0.0 | 0.0 | 0.00 | 0.06 | 0.06 | 87 | 1004.2 |
| 20260507022510 | 59 | 271 | 0.0 | 0.0 | 0.00 | 0.06 | 0.06 | 87 | 1004.3 |
| 20260507022011 | 59 | 248 | 0.0 | 0.0 | 0.00 | 0.06 | 0.06 | 87 | 1004.1 |
| 20260507021510 | 59 | 246 | 0.0 | 0.0 | 0.00 | 0.06 | 0.06 | 87 | 1004.1 |
| 20260507021009 | 58 | 238 | 0.0 | 0.0 | 0.00 | 0.06 | 0.06 | 87 | 1004.1 |
| 20260507020512 | 58 | 278 | 0.0 | 1.0 | 0.00 | 0.06 | 0.06 | 87 | 1004.2 |
| 20260507020009 | 58 | 246 | 0.0 | 1.0 | 0.00 | 0.06 | 0.06 | 87 | 1004.3 |
| 20260507015508 | 58 | 294 | 0.0 | 0.0 | 0.00 | 0.06 | 0.06 | 87 | 1004.3 |
| 20260507015008 | 58 | 336 | 0.0 | 0.0 | 0.00 | 0.06 | 0.06 | 87 | 1004.3 |
| 20260507014508 | 58 | 249 | 0.0 | 0.0 | 0.00 | 0.06 | 0.06 | 87 | 1004.1 |
| 20260507014011 | 58 | 347 | 0.0 | 0.0 | 0.00 | 0.06 | 0.06 | 87 | 1004.1 |
| 20260507013508 | 58 | 277 | 0.0 | 0.0 | 0.00 | 0.06 | 0.06 | 87 | 1004.1 |
| 20260507013017 | 58 | 269 | 0.0 | 0.0 | 0.00 | 0.06 | 0.06 | 87 | 1004.2 |
| 20260507012507 | 58 | 236 | 0.0 | 0.0 | 0.00 | 0.06 | 0.06 | 87 | 1004.4 |
| 20260507012009 | 58 | 259 | 0.0 | 0.0 | 0.00 | 0.06 | 0.06 | 87 | 1004.4 |
| 20260507011511 | 58 | 340 | 0.0 | 0.0 | 0.00 | 0.06 | 0.06 | 87 | 1004.5 |
| 20260507011006 | 58 | 268 | 0.0 | 0.0 | 0.00 | 0.06 | 0.06 | 88 | 1004.6 |
| 20260507010506 | 58 | 238 | 0.0 | 0.0 | 0.00 | 0.06 | 0.06 | 88 | 1004.6 |
| 20260507010010 | 58 | 250 | 0.0 | 0.0 | 0.00 | 0.06 | 0.06 | 88 | 1004.4 |
| 20260507005506 | 58 | 260 | 0.0 | 0.0 | 0.00 | 0.06 | 0.06 | 88 | 1004.5 |
| 20260507005005 | 58 | 236 | 0.0 | 0.0 | 0.00 | 0.06 | 0.06 | 88 | 1004.6 |
| 20260507004508 | 58 | 360 | 0.0 | 0.0 | 0.00 | 0.06 | 0.06 | 88 | 1004.6 |
| 20260507004006 | 58 | 252 | 0.0 | 0.0 | 0.00 | 0.06 | 0.06 | 88 | 1004.5 |
| 20260507003506 | 58 | 202 | 0.0 | 0.0 | 0.00 | 0.06 | 0.06 | 88 | 1004.6 |
| 20260507003006 | 58 | 252 | 0.0 | 0.0 | 0.01 | 0.06 | 0.06 | 88 | 1004.5 |
| 20260507002508 | 58 | 265 | 0.0 | 0.0 | 0.01 | 0.06 | 0.06 | 88 | 1004.4 |
| 20260507002006 | 58 | 194 | 0.0 | 0.0 | 0.01 | 0.06 | 0.06 | 88 | 1004.4 |
| 20260507001509 | 58 | 251 | 0.0 | 0.0 | 0.01 | 0.06 | 0.06 | 88 | 1004.3 |
| 20260507001004 | 58 | 274 | 0.0 | 0.0 | 0.01 | 0.06 | 0.06 | 88 | 1004.3 |
| 20260507000505 | 58 | 254 | 0.0 | 0.0 | 0.02 | 0.06 | 0.06 | 89 | 1004.2 |
| 20260507000004 | 58 | 238 | 0.0 | 0.0 | 0.02 | 0.06 | 0.06 | 89 | 1004.2 |
| 20260506235504 | 58 | 291 | 0.0 | 0.0 | 0.02 | 0.06 | 0.06 | 89 | 1004.1 |
| 20260506235003 | 58 | 277 | 0.0 | 0.0 | 0.02 | 0.06 | 0.06 | 89 | 1004.1 |
| 20260506234502 | 59 | 254 | 0.0 | 0.0 | 0.02 | 0.06 | 0.06 | 89 | 1004.1 |
| 20260506234004 | 59 | 29 | 0.0 | 0.0 | 0.02 | 0.06 | 0.06 | 89 | 1004.1 |
| 20260506233502 | 59 | 280 | 0.0 | 0.0 | 0.02 | 0.06 | 0.06 | 89 | 1004.0 |
| 20260506233002 | 59 | 213 | 0.0 | 0.0 | 0.01 | 0.05 | 0.05 | 89 | 1004.0 |
| 20260506232501 | 59 | 171 | 0.0 | 0.0 | 0.01 | 0.05 | 0.05 | 89 | 1004.0 |
| 20260506232002 | 59 | 269 | 0.0 | 0.0 | 0.01 | 0.05 | 0.05 | 89 | 1004.0 |
| 20260506231603 | 59 | 241 | 0.0 | 0.0 | 0.01 | 0.05 | 0.05 | 89 | 1003.9 |
| 20260506231100 | 59 | 271 | 0.0 | 0.0 | 0.01 | 0.05 | 0.05 | 89 | 1004.0 |
| 20260506230559 | 59 | 209 | 0.0 | 1.0 | 0.00 | 0.04 | 0.04 | 89 | 1004.1 |
| 20260506230059 | 59 | 279 | 0.0 | 0.0 | 0.00 | 0.04 | 0.04 | 89 | 1004.1 |
| 20260506225558 | 59 | 286 | 0.0 | 0.0 | 0.00 | 0.04 | 0.04 | 89 | 1004.0 |
| 20260506225059 | 59 | 207 | 0.0 | 0.0 | 0.00 | 0.04 | 0.04 | 89 | 1004.0 |
| 20260506224559 | 59 | 288 | 0.0 | 0.0 | 0.00 | 0.04 | 0.04 | 89 | 1004.1 |
| 20260506224056 | 59 | 254 | 0.0 | 0.0 | 0.00 | 0.04 | 0.04 | 89 | 1004.1 |
| 20260506223557 | 59 | 269 | 0.0 | 0.0 | 0.00 | 0.04 | 0.04 | 89 | 1004.1 |
| 20260506223056 | 59 | 278 | 0.0 | 0.0 | 0.01 | 0.04 | 0.04 | 89 | 1004.1 |
| 20260506222556 | 59 | 236 | 0.0 | 0.0 | 0.01 | 0.04 | 0.04 | 89 | 1004.2 |
| 20260506222056 | 59 | 162 | 0.0 | 0.0 | 0.01 | 0.04 | 0.04 | 89 | 1004.2 |
| 20260506221558 | 59 | 244 | 0.0 | 0.0 | 0.02 | 0.04 | 0.04 | 89 | 1004.3 |
| 20260506221054 | 60 | 263 | 0.0 | 0.0 | 0.02 | 0.04 | 0.04 | 89 | 1004.4 |
| 20260506220555 | 60 | 232 | 0.0 | 0.0 | 0.02 | 0.04 | 0.04 | 89 | 1004.4 |
| 20260506220053 | 60 | 280 | 0.0 | 0.0 | 0.02 | 0.04 | 0.04 | 89 | 1004.5 |
| 20260506215556 | 60 | 233 | 0.0 | 0.0 | 0.02 | 0.04 | 0.04 | 89 | 1004.4 |
| 20260506215052 | 60 | 255 | 0.0 | 0.0 | 0.02 | 0.04 | 0.04 | 89 | 1004.4 |
| 20260506214554 | 60 | 245 | 0.0 | 0.0 | 0.02 | 0.04 | 0.04 | 89 | 1004.5 |
| 20260506214050 | 60 | 247 | 0.0 | 0.0 | 0.02 | 0.04 | 0.04 | 90 | 1004.5 |
| 20260506213550 | 60 | 289 | 0.0 | 0.0 | 0.02 | 0.04 | 0.04 | 89 | 1004.7 |
| 20260506213109 | 60 | 269 | 0.0 | 0.0 | 0.01 | 0.03 | 0.03 | 89 | 1004.7 |
| 20260506212549 | 61 | 202 | 0.0 | 0.0 | 0.01 | 0.03 | 0.03 | 89 | 1004.8 |
| 20260506212050 | 61 | 262 | 0.0 | 0.0 | 0.01 | 0.03 | 0.03 | 89 | 1004.8 |
| 20260506211549 | 61 | 311 | 0.0 | 0.0 | 0.00 | 0.02 | 0.02 | 89 | 1004.8 |
| 20260506211049 | 61 | 236 | 0.0 | 0.0 | 0.00 | 0.02 | 0.02 | 88 | 1004.8 |
| 20260506210547 | 61 | 317 | 0.0 | 0.0 | 0.00 | 0.02 | 0.02 | 88 | 1004.8 |
| 20260506210048 | 61 | 244 | 0.0 | 0.0 | 0.00 | 0.02 | 0.02 | 88 | 1004.8 |
| 20260506205547 | 61 | 262 | 0.0 | 0.0 | 0.00 | 0.02 | 0.02 | 88 | 1004.9 |
| 20260506205047 | 61 | 244 | 0.0 | 1.0 | 0.00 | 0.02 | 0.02 | 88 | 1005.0 |
| 20260506204548 | 61 | 355 | 0.0 | 1.0 | 0.00 | 0.02 | 0.02 | 88 | 1005.0 |
| 20260506204047 | 61 | 279 | 0.0 | 0.0 | 0.01 | 0.02 | 0.02 | 88 | 1005.0 |
| 20260506203547 | 61 | 5 | 0.0 | 0.0 | 0.01 | 0.02 | 0.02 | 88 | 1005.1 |
| 20260506203047 | 61 | 253 | 0.0 | 0.0 | 0.01 | 0.02 | 0.02 | 87 | 1005.1 |
| 20260506202547 | 61 | 323 | 0.0 | 0.0 | 0.01 | 0.02 | 0.02 | 87 | 1005.1 |
| 20260506202046 | 61 | 220 | 0.0 | 0.0 | 0.02 | 0.02 | 0.02 | 86 | 1005.1 |
| 20260506201546 | 61 | 264 | 0.0 | 0.0 | 0.02 | 0.02 | 0.02 | 86 | 1005.1 |
| 20260506201045 | 61 | 275 | 0.0 | 1.0 | 0.02 | 0.02 | 0.02 | 86 | 1005.1 |
| 20260506200545 | 62 | 9 | 0.0 | 1.0 | 0.02 | 0.02 | 0.02 | 85 | 1005.0 |
| 20260506200045 | 62 | 281 | 0.0 | 0.0 | 0.02 | 0.02 | 0.02 | 85 | 1005.0 |
| 20260506195545 | 62 | 258 | 0.0 | 0.0 | 0.02 | 0.02 | 0.02 | 86 | 1004.9 |
| 20260506195047 | 62 | 253 | 0.0 | 0.0 | 0.02 | 0.02 | 0.02 | 85 | 1005.0 |
| 20260506194547 | 63 | 263 | 0.0 | 0.0 | 0.02 | 0.02 | 0.02 | 84 | 1004.9 |
| 20260506194043 | 63 | 255 | 0.0 | 0.0 | 0.01 | 0.01 | 0.01 | 82 | 1004.9 |
| 20260506193542 | 63 | 313 | 0.0 | 0.0 | 0.01 | 0.01 | 0.01 | 82 | 1005.1 |
| 20260506193043 | 64 | 26 | 0.0 | 0.0 | 0.01 | 0.01 | 0.01 | 81 | 1005.3 |
| 20260506192542 | 64 | 313 | 0.0 | 6.0 | 0.01 | 0.01 | 0.01 | 80 | 1005.3 |
| 20260506192042 | 64 | 327 | 0.0 | 6.0 | 0.00 | 0.00 | 0.00 | 78 | 1005.2 |
| 20260506191543 | 65 | 252 | 0.0 | 0.0 | 0.00 | 0.00 | 0.00 | 78 | 1005.3 |
| 20260506191042 | 66 | 311 | 0.0 | 0.0 | 0.00 | 0.00 | 0.00 | 77 | 1005.1 |
| 20260506190543 | 66 | 281 | 0.0 | 0.0 | 0.00 | 0.00 | 0.00 | 75 | 1005.1 |
| 20260506190043 | 67 | 28 | 0.0 | 0.0 | 0.00 | 0.00 | 0.00 | 73 | 1005.2 |
| 20260506185541 | 67 | 296 | 0.0 | 0.0 | 0.00 | 0.00 | 0.00 | 70 | 1005.2 |
| 20260506185041 | 68 | 323 | 0.0 | 0.0 | 0.00 | 0.00 | 0.00 | 68 | 1005.1 |
| 20260506184549 | 68 | 15 | 0.0 | 0.0 | 0.00 | 0.00 | 0.00 | 67 | 1005.2 |
| 20260506184040 | 68 | 223 | 0.0 | 0.0 | 0.00 | 0.00 | 0.00 | 66 | 1005.1 |
| 20260506183540 | 69 | 275 | 0.0 | 1.0 | 0.00 | 0.00 | 0.00 | 66 | 1005.3 |
| 20260506183052 | 69 | 330 | 0.0 | 1.0 | 0.00 | 0.00 | 0.00 | 66 | 1005.3 |
| 20260506182539 | 70 | 326 | 0.0 | 4.0 | 0.00 | 0.00 | 0.00 | 64 | 1005.3 |
| 20260506182038 | 70 | 325 | 0.0 | 4.0 | 0.00 | 0.00 | 0.00 | 62 | 1005.4 |
| 20260506181608 | 70 | 244 | 0.0 | 0.0 | 0.00 | 0.00 | 0.00 | 61 | 1005.3 |
| 20260506181038 | 70 | 117 | 0.0 | 0.0 | 0.00 | 0.00 | 0.00 | 60 | 1005.4 |
| 20260506180538 | 71 | 242 | 0.0 | 0.0 | 0.00 | 0.00 | 0.00 | 59 | 1005.3 |
| 20260506180037 | 71 | 12 | 0.0 | 0.0 | 0.00 | 0.00 | 0.00 | 59 | 1005.5 |
| 20260506175538 | 71 | 261 | 0.0 | 1.0 | 0.00 | 0.00 | 0.00 | 58 | 1005.5 |
| 20260506175039 | 71 | 250 | 0.0 | 8.0 | 0.00 | 0.00 | 0.00 | 57 | 1005.5 |
| 20260506174535 | 72 | 349 | 1.0 | 7.0 | 0.00 | 0.00 | 0.00 | 56 | 1005.6 |
| 20260506174035 | 72 | 333 | 0.0 | 0.0 | 0.00 | 0.00 | 0.00 | 57 | 1005.6 |
| 20260506173535 | 72 | 295 | 0.0 | 1.0 | 0.00 | 0.00 | 0.00 | 56 | 1005.7 |
| 20260506173053 | 72 | 316 | 0.0 | 1.0 | 0.00 | 0.00 | 0.00 | 56 | 1005.7 |
| 20260506172536 | 72 | 320 | 0.0 | 0.0 | 0.00 | 0.00 | 0.00 | 56 | 1005.7 |